KOREASAT 116

Last updated on Sun Oct 13 2024 00:02:41 GMT+0000 (Coordinated Universal Time)

1 45920U 20048A 24285.65557498 -.00000360 00000+0 00000+0 0 9992 2 45920 0.0251 275.3805 0001235 281.7311 175.8078 1.00266802 15483
UTC large
Height (km)
Speed (km/s)
/
Latitude / Longitude
Inclination (degrees)
Orbital Period (minutes)
Azimuth
Elevation
Range (km)
Doppler Factor

Next 0 passes for location: London (51.5072 / 0.1276)

Sorry there are no passes over London.